FLOCK 2K-26 (42883 NORAD) Tracking and Keplerian Element Data

This shows tracking and keplerian element data for the satellite.

Feedback or suggestion? Click here.




ElementValue
Catalog42883
NameFLOCK 2K-26
Epoch Orbit15571
Epoch Day114.61973902
Epoch Year2020
RAAN346.2439
Inclination96.8998
Eccentricity0.0011152
Argument of Perigee149.4848
Mean Anonmoly210.7052
Mean Motion15.42821274
Decay Rate6.076E-05
L11 42883U 17042BL 20114.61973902 .00006076 00000-0 14025-3 0 9998
L22 42883 96.8998 346.2439 0011152 149.4848 210.7052 15.42821274155717



Live tracking and technical data element details for FLOCK 2K-26 (NORAD 42883). FLOCK 2K-26 can be tracked NOW for your location showing map with azimuth and elevation plus other details from your city location.







IsCatalogInMostPopularTable: catalog: 42883, numindb: 826
Update: records affected: 1



GetName: 42883 FLOCK 2K-26

Hit Count: updated at: Sat, 20 Apr 2024 23:09:05 GMT